SL-16 R/B

Last updated on Sat Aug 15 2026 00:02:08 GMT+0000 (Coordinated Universal Time)

1 31793U 07029B 26226.38376012 -.00000284 00000+0 -12248-3 0 9994 2 31793 70.9737 200.8903 0002043 267.1510 244.7239 14.14856975987679
UTC large
Height (km)
Speed (km/s)
/
Latitude / Longitude
Inclination (degrees)
Orbital Period (minutes)
Azimuth
Elevation
Range (km)
Doppler Factor

Next 0 passes for location: London (51.5072 / 0.1276)

No passes found over London.
SL-16 R/B